User: anonymous   Login
Location: Anumalkud?ru
(16.4847°N, 80.6636°E)
Time: 00:11:08
(UTC+00:00)
Language:

Geosat - Orbit

View from above orbital plane
View from above orbital plane
View from above satellite
View from above satellite

Ground track
Ground track

The orbit is defined by the following mean orbital elements,

1 15595U          26159.46547596 +.00000000 +00000-0 +79389-4 0 00007
2 15595 108.0435  63.2987 0001255 281.6673  78.4328 14.39962331    02
Epoch (UTC): 08 June 2026 11:10:17
Eccentricity: 0.0001255
inclination: 108.0435°
perigee height: 758 km
apogee height: 760 km
right ascension of ascending node: 63.2987°
argument of perigee: 281.6673°
revolutions per day: 14.39962331
mean anomaly at epoch: 78.4328°

The dashed part of the orbit path shows where the satellite is in the earth's shadow,  

DLR